Notices

What's New in latest Release from April 7th, 2021:

- Updated Glossary, including Speed of Maximum Gust, and Total Hourly Precipitation

- Updated national and regional climate services offices contacts and prices information

- Addition of station inventory lists for 1981-2010, 1971-2000, and 1961-1990 Normals.

If you haven't already, please take our survey and provide feedback about our website: https://eccc.sondage-survey.ca/f/LanguageSelection.aspx?s=442ca660-fcf1-47c0-95a9-59707d6fd709

Hourly Data Report for October 22, 2019

PINAWA
MANITOBA
Current Station Operator: ECCC - MSC

50°10'38.020" N
96°03'53.000" W
268.00 m
503B1ER
71448
WEA

Download Data

Hourly Data (October 2019)
Hourly Data Report for October 22, 2019
TIME
LST
Temp Definition
°C
Dew Point Definition
°C
Rel Hum Definition
%
Precip. Amount Definition
mm

Wind Dir Definition
10's deg

Wind Spd Definition
km/h
Visibility Definition
km
Stn Press Definition
kPa
Hmdx Definition


Wind Chill Definition


Weather Definition


00:00 3.8 LegendMM LegendMM 0.0 35 19   97.23     LegendNANA
01:00 3.7 LegendMM LegendMM 0.0 34 20   97.17     LegendNANA
02:00 3.4 LegendMM LegendMM 0.0 34 19   97.12     LegendNANA
03:00 3.6 LegendMM LegendMM 0.0 34 21   97.07     LegendNANA
04:00 3.5 LegendMM LegendMM 0.0 33 19   97.00     LegendNANA
05:00 3.3 LegendMM LegendMM 0.0 34 20   96.96     LegendNANA
06:00 2.7 LegendMM LegendMM 0.0 33 23   96.95     LegendNANA
07:00 2.2 LegendMM LegendMM 0.2 32 27   96.88     LegendNANA
08:00 2.5 LegendMM LegendMM 0.0 34 23   96.91     LegendNANA
09:00 2.5 LegendMM LegendMM 0.0 34 23   96.90     LegendNANA
10:00 2.7 LegendMM LegendMM 0.0 33 25   96.88     LegendNANA
11:00 2.5 LegendMM LegendMM 0.0 34 24   96.88     LegendNANA
12:00 2.3 LegendMM LegendMM 0.0 33 23   96.89     LegendNANA
13:00 2.2 LegendMM LegendMM 0.0 33 22   96.89     LegendNANA
14:00 1.9 LegendMM LegendMM 0.0 33 23   96.92     LegendNANA
15:00 1.7 LegendMM LegendMM 0.2 32 25   96.98     LegendNANA
16:00 1.8 LegendMM LegendMM 0.0 33 26   97.05     LegendNANA
17:00 1.7 LegendMM LegendMM 0.2 32 25   97.09     LegendNANA
18:00 1.6 LegendMM LegendMM 0.7 33 18   97.14     LegendNANA
19:00 1.7 LegendMM LegendMM 0.5 34 13   97.17     LegendNANA
20:00 1.4 LegendMM LegendMM 0.0 35 20   97.20     LegendNANA
21:00 1.2 LegendMM LegendMM 0.0 34 16   97.25     LegendNANA
22:00 1.3 LegendMM LegendMM 0.0 34 16   97.28     LegendNANA
23:00 1.0 LegendMM LegendMM 0.0 34 17   97.31     LegendNANA

Notes on Data Quality.

Legend

  • E = Estimated
  • M = Missing
  • NA = Not Available*
  • [empty] = Indicates an unobserved value
Date modified: